Weather Roundup
Issued by NWS

Home | Current Version | Previous Version | Text Only | Print | Product List | Glossary On
Versions: 1 2 3 4 5 6 7 8 9 10 11 12 13 14 15 16 17 18 19 20 21 22 23 24 25 26 27 28 29 30 31 32 33 34 35 36 37 38 39 40 41 42 43 44 45 46 47 48 49 50
000
NZUS93 KARX 211910
HRRWXR

CURRENT HOURLY OBSERVATIONS ACROSS
MUCH OF THE UPPER MISSISSIPPI VALLEY
NATIONAL WEATHER SERVICE LA CROSSE WI
100 PM CST SUN JAN 21 2018


...SOUTHEAST MINNESOTA...


CITY           SKY/WX    TMP DP  RH WIND       PRES   REMARKS
ROCHESTER      FAIR      38  32  79 NE6       29.89F WCI  33
ROCHESTER/MAYO FAIR      39  31  72 CALM      29.90F
WINONA         FAIR      36  34  93 CALM      29.90F
AUSTIN         FAIR      37  30  75 NE9       29.88F WCI  31
ALBERT LEA     FAIR      37  32  81 NE9       29.87F WCI  31
DODGE CENTER   FAIR      37  30  75 NE6       29.90S WCI  33
PRESTON        PTSUNNY   37  31  81 NE3       29.89F
OWATONNA       FAIR      41  34  75 NE5       29.91F
FARIBAULT      CLOUDY    39  30  70 N6        29.93S WCI  35
$$

...ELSEWHERE IN MINNESOTA...


CITY           SKY/WX    TMP DP  RH WIND       PRES   REMARKS
MINNEAPOLIS    CLOUDY    39  31  72 N7        29.95F WCI  34
INTNL FALLS    FOG       24  22  91 CALM      30.02F VSB 1/4
DULUTH         FAIR      35  27  72 CALM      29.96S
RED WING       CLOUDY    41  27  56 CALM      29.93S
REDWOOD FALLS  CLOUDY    37  30  75 N8        29.96F WCI  31
MANKATO        CLOUDY    40  31  70 N8        29.93F WCI  34
WORTHINGTON    CLOUDY    39  31  72 N14       29.90F WCI  31
FAIRMONT       CLOUDY    37  32  82 N10       29.90F WCI  30
$$

...SOUTHWEST WISCONSIN...


CITY           SKY/WX    TMP DP  RH WIND       PRES   REMARKS
LA CROSSE      FAIR      33  30  88 N6        29.91F FOG     WCI  28
PRAIRIE DU CHI CLOUDY    32  30  95 CALM      29.89F FOG
BOSCOBEL       CLOUDY    33  32  96 NE5       29.91F FOG     WCI  29
LONE ROCK      CLOUDY    33  33 100 CALM      29.91F FOG
PLATTEVILLE    CLOUDY    37  37 100 E10       29.87F WCI  30
FORT MC COY    FAIR      42  33  72 NW3       29.91F
CAMP DOUGLAS   PTSUNNY   43  34  70 CALM      29.90F
MAUSTON-NEW LI FAIR      42  34  72 CALM      29.89F
VIROQUA        CLOUDY    40  37  88 NE6       29.88F
WIS DELLS      CLOUDY    38  33  82 E3        29.90F
$$

...ELSEWHERE IN WISCONSIN...


CITY           SKY/WX    TMP DP  RH WIND       PRES   REMARKS
MILWAUKEE      CLOUDY    39  36  89 CALM      29.93F FOG
MADISON        CLOUDY    38  36  92 CALM      29.92F FOG
GREEN BAY      FAIR      40  33  76 CALM      29.94F HAZE
EAU CLAIRE     CLOUDY    40  31  70 NE7       29.92F
BLACK RVR FLS  FAIR      45  31  58 E6        29.91F
MEDFORD        CLOUDY    39  30  68 NE7       29.91F WCI  34
WAUSAU         CLOUDY    40  31  70 W3        29.89F
WIS RAPIDS     FAIR      43  31  62 E6        29.92F
MARSHFIELD     PTSUNNY   41  31  67 E6        29.89F
RICE LAKE      CLOUDY    36  30  80 N3        29.95F
$$

...NORTHEAST IOWA...


CITY           SKY/WX    TMP DP  RH WIND       PRES   REMARKS
WATERLOO       LGT RAIN  38  37  97 E6        29.84F FOG     WCI  33
DUBUQUE        CLOUDY    38  34  85 NE5       29.86F FOG     WCI  34
DECORAH        CLOUDY    34  32  93 CALM      29.87F FOG
MASON CITY     CLOUDY    36  33  89 NE6       29.87F FOG     WCI  31
CHARLES CITY   CLOUDY    36  36 100 NE8       29.86F FOG     WCI  29
OELWEIN        CLOUDY    37  37 100 E9G15     29.85F FOG     WCI  31
$$

...ELSEWHERE IN IOWA...


CITY           SKY/WX    TMP DP  RH WIND       PRES   REMARKS
DES MOINES     DRZL/FOG  41  40  96 NE8       29.78F VSB 1
IOWA CITY      CLOUDY    43  40  89 E3        29.84F FOG
FORT DODGE     CLOUDY    36  34  92 NE9       29.82F FOG     WCI  29
MARSHALLTOWN   LGT RAIN  39  39 100 E12       29.80F FOG     WCI  32
CEDAR RAPIDS   CLOUDY    43  39  86 E12       29.82F FOG
$$

...NORTHERN ILLINOIS...


CITY           SKY/WX    TMP DP  RH WIND       PRES   REMARKS
CHICAGO-OHARE  CLOUDY    44  41  89 SE3       29.90F FOG
CHICAGO-MIDWAY CLOUDY    45  43  93 S5        29.91F FOG
MOLINE         FOG       44  43  96 E6        29.84F VSB 1
ROCKFORD       CLOUDY    40  37  89 E5        29.92F FOG
PEORIA         CLOUDY    49  46  90 SE5       29.87F FOG
$$

NOTE: "FAIR" INDICATES FEW OR NO CLOUDS BELOW 12,000 FEET WITH NO
SIGNIFICANT WEATHER AND/OR OBSTRUCTIONS TO VISIBILITY. WIND
SPEEDS ARE IN MILES-PER-HOUR.




USA.gov is the U.S. government's official web portal to all federal, state and local government web resources and services.